Weather History for KPMD - May, 2014

Change the Weather History Date:

Wednesday, May 28, 2014

  Actual Average Record
Temperature  
Mean Temperature 77 °F 71 °F  
Max Temperature 90 °F 87 °F 106 °F (2003)
Min Temperature 64 °F 55 °F 39 °F (1964)
Degree Days  
Heating Degree Days 0 1  
Month to date heating degree days 35 65  
Since 1 July heating degree days 2331 2915  
Cooling Degree Days 12 7  
Month to date cooling degree days 152 125  
Year to date cooling degree days 196 148  
Growing Degree Days 29 (Base 50)    
Moisture  
Dew Point 32 °F    
Average Humidity 24    
Maximum Humidity 37    
Minimum Humidity 11    
Precipitation  
Precipitation 0.00 in 0.01 in 0.09 in (1971)
Month to date precipitation 0.96 0.24  
Year to date precipitation 3.05 5.22  
Since 1 July precipitation 5.12 8.20  
Snow  
Snow 0.00 in - 0.00 in (1973)
Month to date snowfall 0.0  
Since 1 July snowfall 0.0  
Snow Depth 0.00 in    
Sea Level Pressure  
Sea Level Pressure 29.85 in    
Wind  
Wind Speed 13 mph (West)    
Max Wind Speed 23 mph    
Max Gust Speed 29 mph    
Visibility 10 miles    
Events      
T = Trace of Precipitation, MM = Missing Value Source: NWS Daily Summary

Daily Weather History Graph

Daily Weather History Graph

Search for Another Location

Airport or City:

Trip Planner

Search our weather history database for the weather conditions in past years. The results will help you decide how hot, cold, wet, or windy it might be!

Date:

Astronomy

May. 28, 2014 Rise Set
Actual Time 5:41 AM PDT 7:57 PM PDT
Civil Twilight 5:13 AM PDT 8:26 PM PDT
Nautical Twilight 4:37 AM PDT 9:01 PM PDT
Astronomical Twilight 3:59 AM PDT 9:40 PM PDT
Moon 5:48 AM PDT (5/28) 8:02 PM PDT (5/28)
Length of Visible Light 15h 13m
Length of Day
14h 15m
New Moon, 0% of the Moon is Illuminated
May 28
New Moon
Jun 5
First Quarter
Jun 12
Full
Jun 19
Last Quarter
Jun 27
New

Hourly Weather History & Observations

Time (PDT) Temp. Dew Point Humidity Pressure Visibility Wind Dir Wind Speed Gust Speed Precip Events Conditions
12:53 AM 73.0 °F 37.9 °F 28% 29.86 in 10.0 mi WSW 10.4 mph - N/A   Clear
1:53 AM 73.0 °F 37.0 °F 27% 29.86 in 10.0 mi WSW 8.1 mph - N/A   Clear
2:53 AM 73.0 °F 35.1 °F 25% 29.85 in 10.0 mi WSW 5.8 mph - N/A   Clear
3:53 AM 70.0 °F 28.9 °F 22% 29.84 in 10.0 mi West 11.5 mph - N/A   Clear
4:53 AM 71.1 °F 28.9 °F 21% 29.83 in 10.0 mi West 9.2 mph - N/A   Clear
5:53 AM 68.0 °F 30.2 °F 24% 29.93 in 10.0 mi WNW 5.8 mph - N/A   Clear
6:53 AM 70.0 °F 23.0 °F 17% 29.86 in 10.0 mi West 10.4 mph - N/A   Clear
7:53 AM 69.1 °F 43.0 °F 39% 29.88 in 10.0 mi South 3.5 mph - N/A   Clear
8:53 AM 78.1 °F 23.0 °F 13% 29.87 in 10.0 mi NW 13.8 mph - N/A   Clear
9:53 AM 79.0 °F 28.0 °F 15% 29.86 in 10.0 mi SSE 8.1 mph - N/A   Clear
10:53 AM 82.4 °F 24.8 °F 12% 29.93 in 10.0 mi NW 10.4 mph - N/A   Clear
11:53 AM 87.1 °F 30.9 °F 13% 29.83 in 10.0 mi WSW 15.0 mph 19.6 mph N/A   Clear
12:53 PM 88.0 °F 27.0 °F 11% 29.81 in 10.0 mi SW 17.3 mph 23.0 mph N/A   Clear
1:53 PM 90.0 °F 30.0 °F 12% 29.81 in 10.0 mi WSW 17.3 mph 23.0 mph N/A   Clear
2:53 PM 89.6 °F 35.6 °F 15% 29.88 in 10.0 mi SW 18.4 mph 26.5 mph N/A   Clear
3:53 PM 89.6 °F 39.2 °F 17% 29.87 in 10.0 mi WSW 15.0 mph 25.3 mph N/A   Clear
4:53 PM 87.1 °F 45.0 °F 23% 29.78 in 10.0 mi WSW 21.9 mph - N/A   Clear
5:53 PM 84.0 °F 45.0 °F 25% 29.78 in 10.0 mi West 20.7 mph - N/A   Clear
6:53 PM 79.0 °F 37.0 °F 22% 29.79 in 10.0 mi WNW 18.4 mph 26.5 mph N/A   Clear
7:53 PM 75.9 °F 28.9 °F 18% 29.81 in 10.0 mi WNW 19.6 mph - N/A   Clear
8:53 PM 73.0 °F 24.1 °F 16% 29.82 in 10.0 mi West 18.4 mph - N/A   Clear
9:53 PM 72.0 °F 25.0 °F 17% 29.84 in 10.0 mi WNW 13.8 mph - N/A   Clear
10:53 PM 69.8 °F 26.6 °F 20% 29.93 in 10.0 mi West 15.0 mph - N/A   Clear
11:53 PM 68.0 °F 27.0 °F 21% 29.85 in 10.0 mi West 15.0 mph - N/A   Clear